FW3968 Weather Reports


Display with metric or nautical units.
time (UTC)temp
F
wind
direction
speed
MPH
gust
MPH
rain 1hr
in
rain 24hr
in
rain mn
in
humidity
%
barometer
mb
20260507124222 50 330 4.0 6.0 0.00 0.00 0.00 79 1006.7
20260507123238 50 342 4.0 6.0 0.00 0.00 0.00 81 1006.6
20260507122223 50 336 4.0 6.0 0.00 0.00 0.00 82 1006.7
20260507120322 49 348 3.0 5.0 0.00 0.00 0.00 84 1006.9
20260507115320 48 343 3.0 3.0 0.00 0.00 0.00 86 1006.5
20260507114320 48 325 3.0 7.0 0.00 0.00 0.00 88 1006.9
20260507113320 48 346 3.0 5.0 0.00 0.00 0.00 89 1006.9
20260507112321 48 346 1.0 3.0 0.00 0.00 0.00 89 1006.8
20260507111321 47 345 2.0 4.0 0.00 0.00 0.00 90 1006.3
20260507110319 47 3 5.0 6.0 0.00 0.00 0.00 91 1006.3
20260507105321 47 327 3.0 6.0 0.00 0.00 0.00 93 1006.5
20260507104321 46 342 4.0 9.0 0.00 0.00 0.00 94 1006.1
20260507103420 46 313 0.0 2.0 0.00 0.00 0.00 95 1006.3
20260507102520 46 326 2.0 3.0 0.00 0.00 0.00 96 1006.0
20260507101520 46 360 1.0 1.0 0.00 0.00 0.00 96 1006.0
20260507100523 46 316 0.0 1.0 0.00 0.00 0.00 96 1006.2
20260507095522 46 337 0.0 1.0 0.00 0.00 0.00 96 1006.2
20260507093622 46 348 1.0 3.0 0.00 0.00 0.00 95 1006.0
20260507093520 46 337 1.0 2.0 0.00 0.00 0.00 96 1006.2
20260507092522 46 360 0.0 0.0 0.00 0.00 0.00 96 1006.3
20260507091619 46 360 0.0 2.0 0.00 0.00 0.00 96 1005.7
20260507090620 47 337 0.0 1.0 0.00 0.00 0.00 96 1005.6
20260507085620 47 351 2.0 3.0 0.00 0.00 0.00 96 1005.6
20260507084621 47 322 1.0 2.0 0.00 0.00 0.00 95 1005.6
20260507083719 47 328 3.0 4.0 0.00 0.00 0.00 97 1005.6
20260507082720 47 327 3.0 7.0 0.00 0.00 0.00 97 1005.7
20260507080720 48 348 2.0 4.0 0.00 0.00 0.00 98 1005.4
20260507075735 48 323 3.0 4.0 0.00 0.00 0.00 98 1005.8
20260507073722 49 15 1.0 3.0 0.00 0.00 0.00 97 1005.6
20260507072820 49 347 2.0 3.0 0.00 0.00 0.00 98 1005.4
20260507071822 49 346 3.0 4.0 0.00 0.00 0.00 98 1005.1
20260507070821 49 332 2.0 4.0 0.00 0.00 0.00 98 1005.1
20260507064919 50 359 3.0 4.0 0.00 0.00 0.00 98 1004.8
20260507063921 50 333 1.0 2.0 0.00 0.00 0.00 97 1004.8
20260507063020 50 360 3.0 4.0 0.00 0.00 0.00 98 1004.7
20260507062119 50 325 3.0 7.0 0.00 0.00 0.00 98 1004.6
20260507061120 50 347 1.0 2.0 0.00 0.00 0.00 98 1005.1
20260507060121 50 327 3.0 5.0 0.00 0.00 0.00 97 1005.3
20260507055121 51 316 3.0 7.0 0.00 0.00 0.00 98 1005.3
20260507052121 51 3 4.0 6.0 0.00 0.00 0.00 99 1004.4
20260507051119 52 342 4.0 9.0 0.00 0.00 0.00 99 1004.6
20260507050119 52 335 4.0 7.0 0.00 0.00 0.00 99 1004.8
20260507045119 53 338 4.0 6.0 0.00 0.00 0.00 99 1004.4
20260507044121 53 151 4.0 7.0 0.00 0.00 0.00 98 1004.3
20260507043121 53 196 2.0 4.0 0.00 0.00 0.00 99 1004.2
20260507041122 53 182 4.0 6.0 0.00 0.00 0.00 99 1004.2
20260507040119 53 5 5.0 8.0 0.00 0.00 0.00 98 1004.1
20260507035218 53 180 5.0 9.0 0.00 0.00 0.00 98 1004.2
20260507034317 53 196 5.0 8.0 0.00 0.00 0.00 98 1004.1
20260507033416 53 187 5.0 7.0 0.00 0.00 0.00 97 1004.0
20260507032434 54 195 4.0 5.0 0.00 0.00 0.00 98 1004.0
20260507031518 54 198 6.0 11.0 0.00 0.00 0.00 97 1004.0
20260507030516 54 193 5.0 7.0 0.00 0.00 0.00 98 1003.9
20260507025517 54 189 5.0 8.0 0.00 0.00 0.00 98 1004.1
20260507024517 54 186 5.0 9.0 0.00 0.00 0.00 98 1004.3
20260507023520 54 185 8.0 13.0 0.00 0.00 0.00 98 1004.5
20260507022518 54 181 6.0 10.0 0.00 0.00 0.00 98 1004.8
20260507020616 54 185 6.0 13.0 0.00 0.00 0.00 98 1005.2
20260507015618 55 182 7.0 11.0 0.00 0.00 0.00 97 1005.5
20260507014619 55 210 5.0 7.0 0.00 0.00 0.00 98 1005.6
20260507013617 55 200 6.0 11.0 0.00 0.00 0.00 97 1005.8
20260507012619 55 181 6.0 9.0 0.00 0.00 0.00 97 1005.9
20260507011717 55 181 6.0 12.0 0.00 0.00 0.00 97 1006.0
20260507010733 55 204 6.0 10.0 0.00 0.00 0.00 97 1006.2
20260507004817 55 187 6.0 10.0 0.00 0.00 0.00 97 1006.5
20260507003833 55 180 7.0 7.0 0.00 0.00 0.00 96 1006.6
20260507002835 55 196 7.0 10.0 0.00 0.00 0.00 96 1006.7
20260507001919 55 189 7.0 10.0 0.00 0.00 0.00 97 1006.7
20260507000919 55 171 9.0 17.0 0.00 0.00 0.00 98 1006.6
20260506235918 55 200 8.0 12.0 0.00 0.00 0.00 98 1007.0
20260506232917 55 202 8.0 13.0 0.00 0.00 0.00 97 1006.7
20260506231918 55 187 6.0 11.0 0.00 0.00 0.00 97 1006.8
20260506230918 55 184 3.0 5.0 0.00 0.00 0.00 97 1006.8
20260506225919 55 172 6.0 9.0 0.00 0.00 0.00 97 1007.2
20260506225017 55 185 6.0 13.0 0.00 0.00 0.00 97 1007.1
20260506224018 54 165 11.0 15.0 0.00 0.00 0.00 95 1007.5
20260506223016 55 196 5.0 7.0 0.00 0.00 0.00 96 1007.5
20260506221018 55 173 3.0 6.0 0.00 0.00 0.00 96 1007.7
20260506220017 55 189 5.0 10.0 0.00 0.00 0.00 94 1007.7
20260506215017 55 184 6.0 10.0 0.00 0.00 0.00 94 1007.5
20260506214017 55 200 6.0 12.0 0.00 0.00 0.00 93 1007.6
20260506212016 55 180 3.0 6.0 0.00 0.00 0.00 93 1007.8
20260506210119 55 175 4.0 7.0 0.00 0.00 0.00 91 1007.8
20260506205218 55 174 4.0 7.0 0.00 0.00 0.00 90 1008.0
20260506204218 55 204 3.0 5.0 0.00 0.00 0.00 88 1008.2
20260506203218 56 191 4.0 9.0 0.00 0.00 0.00 87 1008.2
20260506202217 56 193 4.0 9.0 0.00 0.00 0.00 87 1008.0
20260506201219 56 196 6.0 9.0 0.00 0.00 0.00 87 1008.1
20260506200218 56 198 1.0 2.0 0.00 0.00 0.00 85 1007.9
20260506195217 57 195 2.0 4.0 0.00 0.00 0.00 85 1008.1
20260506194317 57 175 4.0 5.0 0.00 0.00 0.00 83 1008.2
20260506192334 58 207 5.0 7.0 0.00 0.00 0.00 82 1008.5
20260506191318 58 207 8.0 14.0 0.00 0.00 0.00 81 1008.2
20260506180332 0 0 0.0 0.0 0.00 0.00 0.00 100
20260506174419 0 0 0.0 0.0 0.00 0.00 0.00 100
20260506173416 59 202 10.0 10.0 0.00 0.00 0.00 79 1009.4
20260506172416 59 180 3.0 8.0 0.00 0.00 0.00 81 1009.4
20260506170416 59 188 3.0 4.0 0.00 0.00 0.00 81 1009.6
20260506165418 59 187 3.0 5.0 0.00 0.00 0.00 81 1009.7
20260506164516 59 154 3.0 6.0 0.00 0.00 0.00 80 1009.8
20260506163518 59 192 4.0 9.0 0.00 0.00 0.00 79 1010.0
20260506162515 60 187 5.0 8.0 0.00 0.00 0.00 79 1010.0
20260506161516 60 204 6.0 8.0 0.00 0.00 0.00 79 1010.1
20260506160516 60 219 3.0 6.0 0.00 0.00 0.00 78 1010.1
20260506155517 60 196 6.0 11.0 0.00 0.00 0.00 78 1010.2
20260506153619 61 186 2.0 7.0 0.00 0.00 0.00 77 1009.6
20260506152716 61 193 2.0 6.0 0.00 0.00 0.00 75 1009.6
20260506151720 61 206 5.0 7.0 0.00 0.00 0.00 76 1009.7
20260506150717 61 181 2.0 4.0 0.00 0.00 0.00 75 1010.1
20260506145717 62 156 5.0 9.0 0.00 0.00 0.00 74 1010.3
20260506144720 62 159 1.0 3.0 0.00 0.00 0.00 75 1010.6
20260506142815 61 175 5.0 7.0 0.00 0.00 0.00 75 1010.6
20260506140917 60 174 4.0 7.0 0.00 0.00 0.00 76 1010.5
20260506135916 60 180 0.0 0.0 0.00 0.00 0.00 76 1010.5
20260506134917 60 113 1.0 2.0 0.00 0.00 0.00 76 1010.6
20260506133918 59 202 1.0 1.0 0.00 0.00 0.00 76 1010.8
20260506132918 59 225 2.0 3.0 0.00 0.00 0.00 78 1010.6
20260506131015 58 157 1.0 3.0 0.00 0.00 0.00 79 1010.7
20260506130018 57 208 0.0 4.0 0.00 0.00 0.00 80 1011.1
20260506125115 57 131 3.0 4.0 0.00 0.00 0.00 82 1011.0